NSZ3777 LRCL-EKCH

Flight info

Callsign NSZ3777
Flight time 1h 47m
Altitude 34000
Route LARMU DCT KENIN/N0446F360 DCT LENOV N133 POLON N983 AMROR DCT ROE M743 TIDVU
Aircraft B738/M-SDE2E3GHIJ1LRWXY/LB1

Departure

Time 2026-05-05 08:56
Airport Avram Iancu Cluj International Airport (LRCL)

Arrival

Time 2026-05-05 10:43
Airport Copenhagen Kastrup Airport (EKCH)
Time Latitude Longitude Altitude Speed Heading
2026-05-05 08:40 46.78354 23.68807 1032 ft 0 kts 351°
2026-05-05 08:51 46.78364 23.68796 1032 ft 8 kts 311°
2026-05-05 08:51 46.78377 23.68676 1032 ft 13 kts 319°
2026-05-05 08:51 46.78467 23.68645 1032 ft 13 kts 349°
2026-05-05 08:51 46.78525 23.68715 1032 ft 13 kts 78°
2026-05-05 08:52 46.78546 23.68869 1032 ft 16 kts 79°
2026-05-05 08:52 46.78567 23.69027 1032 ft 15 kts 79°
2026-05-05 08:52 46.78588 23.69178 1032 ft 15 kts 78°
2026-05-05 08:52 46.78609 23.69327 1032 ft 16 kts 78°
2026-05-05 08:53 46.78642 23.69422 1032 ft 4 kts 359°
2026-05-05 08:53 46.78649 23.69409 1032 ft 5 kts 292°
2026-05-05 08:53 46.78687 23.69285 1032 ft 20 kts 309°
2026-05-05 08:53 46.78807 23.69208 1032 ft 18 kts 341°
2026-05-05 08:54 46.78919 23.69215 1034 ft 18 kts 61°
2026-05-05 08:54 46.78959 23.69382 1034 ft 18 kts 71°
2026-05-05 08:54 46.78979 23.69553 1035 ft 14 kts 75°
2026-05-05 08:54 46.78995 23.69539 1035 ft 4 kts 246°
2026-05-05 08:55 46.78993 23.69531 1035 ft 0 kts 251°
2026-05-05 08:55 46.78961 23.69396 1035 ft 50 kts 251°
2026-05-05 08:55 46.78761 23.68507 1031 ft 132 kts 252°
2026-05-05 08:55 46.78420 23.66979 1328 ft 170 kts 252°
2026-05-05 08:56 46.78054 23.65290 2229 ft 178 kts 252°
2026-05-05 08:56 46.77673 23.63540 3069 ft 191 kts 251°
2026-05-05 08:56 46.77227 23.61561 3413 ft 219 kts 250°
2026-05-05 08:56 46.76856 23.59285 3680 ft 242 kts 272°
2026-05-05 08:57 46.77449 23.56990 4303 ft 249 kts 311°
2026-05-05 08:57 46.78843 23.55501 5051 ft 253 kts 328°
2026-05-05 08:57 46.80431 23.54140 5514 ft 274 kts 329°
2026-05-05 08:57 46.82082 23.52734 6427 ft 277 kts 329°
2026-05-05 08:58 46.83759 23.51287 7182 ft 284 kts 329°
2026-05-05 08:58 46.85449 23.49806 8088 ft 284 kts 329°
2026-05-05 08:58 46.87158 23.48293 8892 ft 290 kts 329°
2026-05-05 08:58 46.88899 23.46729 9653 ft 297 kts 329°
2026-05-05 08:59 46.90663 23.45138 10413 ft 302 kts 329°
2026-05-05 08:59 46.92467 23.43506 10913 ft 314 kts 329°
2026-05-05 08:59 46.94335 23.41811 11657 ft 317 kts 329°
2026-05-05 08:59 46.96206 23.40104 12556 ft 317 kts 329°
2026-05-05 09:00 46.98079 23.38393 13389 ft 319 kts 329°
2026-05-05 09:00 46.99973 23.36660 14157 ft 322 kts 329°
2026-05-05 09:00 47.01833 23.34957 14857 ft 325 kts 329°
2026-05-05 09:00 47.03690 23.33253 15565 ft 328 kts 329°
2026-05-05 09:01 47.05575 23.31522 16276 ft 331 kts 329°
2026-05-05 09:01 47.07535 23.29721 16998 ft 334 kts 329°
2026-05-05 09:01 47.09511 23.27904 17704 ft 337 kts 329°
2026-05-05 09:01 47.11510 23.26065 18394 ft 341 kts 329°
2026-05-05 09:02 47.13523 23.24210 18986 ft 344 kts 329°
2026-05-05 09:02 47.15554 23.22336 19611 ft 346 kts 329°
2026-05-05 09:02 47.17596 23.20451 20247 ft 348 kts 329°
2026-05-05 09:02 47.19653 23.18551 20853 ft 350 kts 329°
2026-05-05 09:03 47.21724 23.16638 21460 ft 353 kts 329°
2026-05-05 09:03 47.23810 23.14707 22059 ft 356 kts 329°
2026-05-05 09:03 47.25898 23.12725 22645 ft 359 kts 327°
2026-05-05 09:03 47.27954 23.10607 23233 ft 362 kts 326°
2026-05-05 09:04 47.30002 23.08423 23784 ft 365 kts 325°
2026-05-05 09:04 47.32055 23.06213 24270 ft 367 kts 325°
2026-05-05 09:04 47.34121 23.03988 24747 ft 369 kts 325°
2026-05-05 09:04 47.36203 23.01753 25222 ft 371 kts 325°
2026-05-05 09:05 47.38302 22.99503 25661 ft 374 kts 324°
2026-05-05 09:05 47.40416 22.97241 26113 ft 377 kts 324°
2026-05-05 09:05 47.42545 22.94966 26578 ft 379 kts 324°
2026-05-05 09:05 47.44686 22.92677 27033 ft 381 kts 324°
2026-05-05 09:06 47.46839 22.90374 27474 ft 383 kts 324°
2026-05-05 09:06 47.48978 22.88086 27883 ft 386 kts 324°
2026-05-05 09:06 47.51157 22.85753 28311 ft 388 kts 324°
2026-05-05 09:06 47.53379 22.83370 28736 ft 390 kts 324°
2026-05-05 09:07 47.55553 22.81037 29143 ft 393 kts 324°
2026-05-05 09:07 47.57769 22.78656 29544 ft 395 kts 324°
2026-05-05 09:07 47.59999 22.76258 29907 ft 397 kts 324°
2026-05-05 09:07 47.62243 22.73841 30196 ft 401 kts 324°
2026-05-05 09:08 47.64504 22.71403 30514 ft 403 kts 324°
2026-05-05 09:08 47.66770 22.68957 30859 ft 403 kts 324°
2026-05-05 09:08 47.69040 22.66505 31212 ft 404 kts 324°
2026-05-05 09:08 47.71315 22.64046 31504 ft 406 kts 324°
2026-05-05 09:09 47.73600 22.61571 31793 ft 408 kts 324°
2026-05-05 09:09 47.75897 22.59082 32091 ft 409 kts 324°
2026-05-05 09:09 47.78196 22.56588 32392 ft 410 kts 324°
2026-05-05 09:09 47.80503 22.54082 32675 ft 412 kts 324°
2026-05-05 09:10 47.82819 22.51564 32951 ft 413 kts 324°
2026-05-05 09:10 47.85144 22.49033 33217 ft 415 kts 324°
2026-05-05 09:10 47.87471 22.46495 33466 ft 416 kts 324°
2026-05-05 09:10 47.89809 22.43944 33717 ft 417 kts 324°
2026-05-05 09:11 47.92152 22.41384 33952 ft 419 kts 324°
2026-05-05 09:11 47.96897 22.36192 34032 ft 428 kts 324°
2026-05-05 09:12 48.01752 22.30868 34041 ft 438 kts 324°
2026-05-05 09:12 48.06703 22.25422 34031 ft 444 kts 324°
2026-05-05 09:13 48.11678 22.19936 34021 ft 445 kts 323°
2026-05-05 09:13 48.16658 22.14435 34017 ft 445 kts 323°
2026-05-05 09:14 48.21635 22.08922 34027 ft 444 kts 323°
2026-05-05 09:14 48.26603 22.03400 34016 ft 444 kts 323°
2026-05-05 09:15 48.31565 21.97876 34024 ft 444 kts 323°
2026-05-05 09:15 48.36530 21.92357 34014 ft 443 kts 324°
2026-05-05 09:16 48.41724 21.87367 34021 ft 443 kts 328°
2026-05-05 09:16 48.47011 21.82620 34018 ft 442 kts 328°
2026-05-05 09:17 48.52270 21.77844 34014 ft 441 kts 328°
2026-05-05 09:17 48.57501 21.73016 34016 ft 441 kts 328°
2026-05-05 09:18 48.62720 21.68162 34013 ft 440 kts 328°
2026-05-05 09:18 48.67900 21.63328 34012 ft 440 kts 328°
2026-05-05 09:19 48.73148 21.58419 34013 ft 440 kts 328°
2026-05-05 09:19 48.78361 21.53533 34011 ft 441 kts 328°
2026-05-05 09:20 48.83583 21.48625 34010 ft 442 kts 328°
2026-05-05 09:20 48.88816 21.43697 34019 ft 443 kts 327°
2026-05-05 09:21 48.94050 21.38758 34005 ft 443 kts 327°
2026-05-05 09:21 48.99270 21.33815 33998 ft 441 kts 327°
2026-05-05 09:22 49.04440 21.28907 34000 ft 440 kts 327°
2026-05-05 09:22 49.09636 21.23962 34001 ft 439 kts 327°
2026-05-05 09:23 49.14820 21.19019 34003 ft 439 kts 327°
2026-05-05 09:23 49.19999 21.14068 33991 ft 439 kts 326°
2026-05-05 09:24 49.25174 21.09106 33986 ft 439 kts 327°
2026-05-05 09:24 49.30353 21.04131 33988 ft 440 kts 326°
2026-05-05 09:25 49.35725 20.99617 33993 ft 443 kts 336°
2026-05-05 09:25 49.41528 20.96371 33993 ft 445 kts 338°
2026-05-05 09:26 49.47383 20.93218 33990 ft 447 kts 338°
2026-05-05 09:26 49.53242 20.89937 33964 ft 449 kts 338°
2026-05-05 09:27 49.59111 20.86602 33962 ft 449 kts 338°
2026-05-05 09:27 49.64966 20.83252 33956 ft 448 kts 337°
2026-05-05 09:28 49.70807 20.79911 33956 ft 448 kts 337°
2026-05-05 09:28 49.76611 20.76589 33953 ft 448 kts 337°
2026-05-05 09:29 49.82454 20.73236 33951 ft 448 kts 337°
2026-05-05 09:29 49.88346 20.69846 33951 ft 449 kts 337°
2026-05-05 09:30 49.94173 20.66484 33943 ft 450 kts 337°
2026-05-05 09:30 50.00055 20.63083 33945 ft 452 kts 337°
2026-05-05 09:31 50.05951 20.59667 33936 ft 453 kts 337°
2026-05-05 09:31 50.11850 20.56239 33939 ft 453 kts 337°
2026-05-05 09:32 50.17759 20.52795 33935 ft 454 kts 336°
2026-05-05 09:32 50.23675 20.49338 33941 ft 454 kts 336°
2026-05-05 09:33 50.29603 20.45861 33928 ft 455 kts 336°
2026-05-05 09:33 50.35528 20.42381 33932 ft 455 kts 336°
2026-05-05 09:34 50.41454 20.38891 33928 ft 455 kts 336°
2026-05-05 09:34 50.47380 20.35390 33918 ft 455 kts 336°
2026-05-05 09:35 50.53303 20.31883 33924 ft 454 kts 336°
2026-05-05 09:35 50.60745 20.26010 33921 ft 449 kts 323°
2026-05-05 09:36 50.65921 20.20501 33911 ft 449 kts 322°
2026-05-05 09:36 50.71093 20.14960 33897 ft 450 kts 323°
2026-05-05 09:37 50.76301 20.09486 33897 ft 450 kts 323°
2026-05-05 09:37 50.81530 20.04040 33893 ft 451 kts 323°
2026-05-05 09:38 50.86752 19.98595 33893 ft 450 kts 323°
2026-05-05 09:38 50.91975 19.93119 33885 ft 451 kts 323°
2026-05-05 09:39 50.97212 19.87610 33878 ft 452 kts 323°
2026-05-05 09:39 51.02454 19.82083 33875 ft 453 kts 323°
2026-05-05 09:40 51.07707 19.76529 33890 ft 454 kts 323°
2026-05-05 09:40 51.12972 19.70943 33881 ft 455 kts 322°
2026-05-05 09:41 51.18241 19.65339 33872 ft 456 kts 322°
2026-05-05 09:41 51.23515 19.59719 33865 ft 456 kts 322°
2026-05-05 09:42 51.28782 19.54090 33873 ft 455 kts 322°
2026-05-05 09:42 51.34035 19.48458 33863 ft 455 kts 322°
2026-05-05 09:43 51.39284 19.42815 33882 ft 454 kts 322°
2026-05-05 09:43 51.44519 19.37170 33874 ft 454 kts 322°
2026-05-05 09:44 51.49748 19.31517 33874 ft 453 kts 322°
2026-05-05 09:44 51.54962 19.25864 33875 ft 452 kts 322°
2026-05-05 09:45 51.60166 19.20205 33882 ft 451 kts 322°
2026-05-05 09:45 51.65357 19.14544 33877 ft 451 kts 322°
2026-05-05 09:46 51.70540 19.08875 33887 ft 450 kts 322°
2026-05-05 09:46 51.75716 19.03197 33874 ft 450 kts 322°
2026-05-05 09:47 51.80883 18.97511 33869 ft 450 kts 322°
2026-05-05 09:47 51.86051 18.91816 33866 ft 449 kts 322°
2026-05-05 09:48 51.91206 18.86113 33864 ft 449 kts 322°
2026-05-05 09:48 51.96331 18.80431 33866 ft 450 kts 322°
2026-05-05 09:49 52.01495 18.74688 33863 ft 450 kts 322°
2026-05-05 09:49 52.06695 18.68887 33868 ft 451 kts 322°
2026-05-05 09:50 52.11867 18.63099 33866 ft 452 kts 322°
2026-05-05 09:50 52.17011 18.57328 33864 ft 452 kts 322°
2026-05-05 09:51 52.22189 18.51505 33874 ft 453 kts 321°
2026-05-05 09:51 52.27376 18.45652 33871 ft 454 kts 321°
2026-05-05 09:52 52.32565 18.39779 33874 ft 454 kts 321°
2026-05-05 09:52 52.37761 18.33884 33874 ft 454 kts 321°
2026-05-05 09:53 52.42955 18.27975 33877 ft 455 kts 321°
2026-05-05 09:53 52.48147 18.22050 33882 ft 455 kts 321°
2026-05-05 09:54 52.53340 18.16102 33885 ft 455 kts 321°
2026-05-05 09:54 52.58523 18.10149 33883 ft 454 kts 320°
2026-05-05 09:55 52.63698 18.04189 33901 ft 454 kts 320°
2026-05-05 09:55 52.68859 17.98227 33895 ft 453 kts 320°
2026-05-05 09:56 52.74016 17.92255 33904 ft 453 kts 320°
2026-05-05 09:56 52.79168 17.86270 33913 ft 453 kts 320°
2026-05-05 09:57 52.84318 17.80269 33889 ft 452 kts 320°
2026-05-05 09:57 52.89451 17.74269 33901 ft 451 kts 320°
2026-05-05 09:58 52.94566 17.68272 33904 ft 450 kts 320°
2026-05-05 09:58 52.99670 17.62272 33898 ft 449 kts 319°
2026-05-05 09:59 53.04757 17.56274 33898 ft 448 kts 319°
2026-05-05 09:59 53.09839 17.50266 33905 ft 448 kts 319°
2026-05-05 10:00 53.14907 17.44254 33907 ft 447 kts 319°
2026-05-05 10:00 53.19969 17.38229 33904 ft 447 kts 319°
2026-05-05 10:01 53.25026 17.32196 33917 ft 447 kts 319°
2026-05-05 10:01 53.30085 17.26142 33910 ft 447 kts 319°
2026-05-05 10:02 53.35139 17.20076 33906 ft 447 kts 319°
2026-05-05 10:02 53.40194 17.13990 33913 ft 447 kts 319°
2026-05-05 10:03 53.45241 17.07896 33909 ft 447 kts 319°
2026-05-05 10:03 53.50282 17.01791 33910 ft 446 kts 319°
2026-05-05 10:04 53.55278 16.95721 33932 ft 446 kts 318°
2026-05-05 10:04 53.60305 16.89596 33915 ft 446 kts 318°
2026-05-05 10:05 53.65363 16.83414 33943 ft 446 kts 318°
2026-05-05 10:05 53.70352 16.77300 33918 ft 446 kts 318°
2026-05-05 10:06 53.75367 16.71134 33916 ft 446 kts 318°
2026-05-05 10:06 53.80372 16.64964 33925 ft 445 kts 317°
2026-05-05 10:07 53.85365 16.58787 33922 ft 444 kts 317°
2026-05-05 10:07 53.90345 16.52609 33926 ft 444 kts 317°
2026-05-05 10:08 53.95315 16.46424 33941 ft 443 kts 317°
2026-05-05 10:08 54.00283 16.40227 33938 ft 443 kts 317°
2026-05-05 10:09 54.05246 16.34014 33930 ft 443 kts 317°
2026-05-05 10:09 54.10205 16.27785 33924 ft 443 kts 317°
2026-05-05 10:10 54.15161 16.21543 33939 ft 443 kts 317°
2026-05-05 10:10 54.20115 16.15285 33946 ft 443 kts 317°
2026-05-05 10:11 54.25060 16.09017 33954 ft 443 kts 316°
2026-05-05 10:11 54.30005 16.02730 33943 ft 443 kts 316°
2026-05-05 10:12 54.34945 15.96429 33944 ft 442 kts 316°
2026-05-05 10:12 54.39875 15.90125 33937 ft 442 kts 316°
2026-05-05 10:13 54.44805 15.83801 33937 ft 442 kts 316°
2026-05-05 10:13 54.49729 15.77463 33972 ft 442 kts 316°
2026-05-05 10:14 54.54659 15.71100 33953 ft 443 kts 316°
2026-05-05 10:14 54.59583 15.64718 33939 ft 443 kts 315°
2026-05-05 10:15 54.63944 15.57474 33946 ft 432 kts 305°
2026-05-05 10:15 54.67956 15.49744 33944 ft 432 kts 305°
2026-05-05 10:16 54.71976 15.42047 33626 ft 436 kts 305°
2026-05-05 10:16 54.74017 15.38176 33358 ft 435 kts 306°
2026-05-05 10:16 54.76061 15.34310 33089 ft 436 kts 306°
2026-05-05 10:17 54.78112 15.30426 32846 ft 439 kts 306°
2026-05-05 10:17 54.80178 15.26506 32579 ft 442 kts 306°
2026-05-05 10:17 54.82250 15.22571 31834 ft 443 kts 306°
2026-05-05 10:17 54.84318 15.18640 31167 ft 440 kts 306°
2026-05-05 10:18 54.86386 15.14700 30391 ft 442 kts 306°
2026-05-05 10:18 54.88452 15.10757 29711 ft 440 kts 306°
2026-05-05 10:18 54.90497 15.06852 29084 ft 435 kts 306°
2026-05-05 10:18 54.92520 15.02988 28522 ft 429 kts 306°
2026-05-05 10:19 54.94515 14.99172 27951 ft 424 kts 306°
2026-05-05 10:19 54.96463 14.95439 27410 ft 419 kts 306°
2026-05-05 10:19 54.98410 14.91702 26852 ft 414 kts 306°
2026-05-05 10:19 55.00332 14.88003 26319 ft 410 kts 306°
2026-05-05 10:20 55.02238 14.84333 25781 ft 406 kts 306°
2026-05-05 10:20 55.04125 14.80692 25249 ft 403 kts 306°
2026-05-05 10:20 55.05975 14.77048 24721 ft 398 kts 303°
2026-05-05 10:20 55.07514 14.73104 24151 ft 390 kts 293°
2026-05-05 10:21 55.08333 14.70337 23808 ft 387 kts 292°
2026-05-05 10:21 55.09540 14.66137 23206 ft 386 kts 292°
2026-05-05 10:21 55.10735 14.61964 22632 ft 382 kts 292°
2026-05-05 10:21 55.11924 14.57832 22086 ft 379 kts 292°
2026-05-05 10:22 55.13107 14.53734 21560 ft 376 kts 292°
2026-05-05 10:22 55.14284 14.49674 21041 ft 373 kts 292°
2026-05-05 10:22 55.15340 14.45580 20561 ft 365 kts 284°
2026-05-05 10:22 55.15914 14.41374 20548 ft 348 kts 277°
2026-05-05 10:23 55.16402 14.37149 20356 ft 365 kts 278°
2026-05-05 10:23 55.16911 14.32733 20105 ft 372 kts 278°
2026-05-05 10:23 55.17431 14.28296 19858 ft 372 kts 278°
2026-05-05 10:23 55.17954 14.23871 19605 ft 370 kts 278°
2026-05-05 10:24 55.18475 14.19476 19356 ft 368 kts 278°
2026-05-05 10:24 55.18994 14.15092 19121 ft 368 kts 278°
2026-05-05 10:24 55.19509 14.10735 18668 ft 364 kts 278°
2026-05-05 10:24 55.20017 14.06429 18183 ft 360 kts 278°
2026-05-05 10:25 55.20521 14.02152 17611 ft 357 kts 278°
2026-05-05 10:25 55.21017 13.97924 17081 ft 353 kts 278°
2026-05-05 10:25 55.21506 13.93736 16562 ft 349 kts 278°
2026-05-05 10:25 55.21988 13.89589 16057 ft 346 kts 278°
2026-05-05 10:26 55.22465 13.85475 15565 ft 343 kts 279°
2026-05-05 10:26 55.22938 13.81395 15072 ft 340 kts 278°
2026-05-05 10:26 55.23403 13.77353 14579 ft 338 kts 278°
2026-05-05 10:26 55.23864 13.73334 14096 ft 335 kts 278°
2026-05-05 10:27 55.24321 13.69341 13594 ft 333 kts 278°
2026-05-05 10:27 55.24774 13.65371 13052 ft 331 kts 278°
2026-05-05 10:27 55.25224 13.61427 12560 ft 329 kts 278°
2026-05-05 10:27 55.25669 13.57509 12075 ft 326 kts 278°
2026-05-05 10:28 55.26109 13.53622 11602 ft 324 kts 278°
2026-05-05 10:28 55.26543 13.49766 11140 ft 321 kts 278°
2026-05-05 10:28 55.26973 13.45953 10793 ft 315 kts 278°
2026-05-05 10:28 55.27388 13.42271 10674 ft 302 kts 278°
2026-05-05 10:29 55.27788 13.38722 10524 ft 291 kts 278°
2026-05-05 10:29 55.28171 13.35307 10409 ft 280 kts 278°
2026-05-05 10:29 55.28539 13.32007 10294 ft 271 kts 278°
2026-05-05 10:29 55.28893 13.28820 10174 ft 261 kts 278°
2026-05-05 10:30 55.29234 13.25748 10070 ft 252 kts 278°
2026-05-05 10:30 55.29555 13.22823 9970 ft 243 kts 278°
2026-05-05 10:30 55.29876 13.19891 9720 ft 240 kts 278°
2026-05-05 10:30 55.30187 13.17067 9464 ft 238 kts 278°
2026-05-05 10:31 55.30497 13.14232 9205 ft 235 kts 278°
2026-05-05 10:31 55.30805 13.11421 8946 ft 234 kts 278°
2026-05-05 10:31 55.31111 13.08631 8685 ft 233 kts 278°
2026-05-05 10:31 55.31414 13.05812 8441 ft 238 kts 278°
2026-05-05 10:32 55.31729 13.02918 8175 ft 244 kts 278°
2026-05-05 10:32 55.32048 12.99956 7915 ft 249 kts 279°
2026-05-05 10:32 55.32369 12.96974 7613 ft 248 kts 279°
2026-05-05 10:32 55.32691 12.94003 7327 ft 248 kts 279°
2026-05-05 10:33 55.33011 12.91040 7086 ft 246 kts 279°
2026-05-05 10:33 55.33332 12.88083 6858 ft 248 kts 279°
2026-05-05 10:33 55.33651 12.85110 6613 ft 249 kts 279°
2026-05-05 10:33 55.33972 12.82114 6352 ft 249 kts 279°
2026-05-05 10:34 55.34288 12.79132 6090 ft 247 kts 279°
2026-05-05 10:34 55.34603 12.76177 5839 ft 245 kts 280°
2026-05-05 10:34 55.34916 12.73245 5572 ft 244 kts 280°
2026-05-05 10:34 55.35227 12.70314 5308 ft 243 kts 280°
2026-05-05 10:35 55.35534 12.67403 5050 ft 242 kts 280°
2026-05-05 10:35 55.35839 12.64502 4810 ft 241 kts 280°
2026-05-05 10:35 55.36144 12.61619 4552 ft 240 kts 280°
2026-05-05 10:35 55.36450 12.58713 4275 ft 242 kts 280°
2026-05-05 10:36 55.36753 12.55809 4022 ft 241 kts 281°
2026-05-05 10:36 55.37055 12.52912 3748 ft 241 kts 281°
2026-05-05 10:36 55.37356 12.50018 3499 ft 241 kts 282°
2026-05-05 10:36 55.37996 12.47351 3211 ft 238 kts 310°
2026-05-05 10:37 55.39090 12.45208 3057 ft 234 kts 312°
2026-05-05 10:37 55.40136 12.43102 3018 ft 221 kts 311°
2026-05-05 10:37 55.41102 12.41125 2982 ft 203 kts 311°
2026-05-05 10:37 55.41987 12.39334 2956 ft 184 kts 312°
2026-05-05 10:38 55.42881 12.37803 2962 ft 177 kts 334°
2026-05-05 10:38 55.44058 12.37746 3014 ft 178 kts 24°
2026-05-05 10:38 55.45130 12.38984 3006 ft 189 kts 30°
2026-05-05 10:38 55.46229 12.40255 2991 ft 188 kts 37°
2026-05-05 10:39 55.47225 12.41748 2980 ft 185 kts 38°
2026-05-05 10:39 55.48198 12.43243 2921 ft 187 kts 39°
2026-05-05 10:39 55.49173 12.44745 2700 ft 190 kts 39°
2026-05-05 10:39 55.50167 12.46287 2444 ft 189 kts 39°
2026-05-05 10:40 55.51148 12.47815 2190 ft 186 kts 38°
2026-05-05 10:40 55.52100 12.49325 1929 ft 183 kts 39°
2026-05-05 10:40 55.53034 12.50762 1678 ft 172 kts 39°
2026-05-05 10:40 55.53905 12.52103 1434 ft 160 kts 39°
2026-05-05 10:41 55.54729 12.53378 1244 ft 155 kts 37°
2026-05-05 10:41 55.55532 12.54621 1072 ft 150 kts 38°
2026-05-05 10:41 55.56331 12.55870 823 ft 154 kts 39°
2026-05-05 10:41 55.57132 12.57115 604 ft 151 kts 40°
2026-05-05 10:42 55.58645 12.59447 219 ft 140 kts 39°
2026-05-05 10:42 55.59362 12.60563 42 ft 135 kts 40°
2026-05-05 10:42 55.60012 12.61576 20 ft 109 kts 41°
2026-05-05 10:43 55.60468 12.62279 18 ft 68 kts 41°
2026-05-05 10:43 55.60793 12.62782 17 ft 58 kts 41°
2026-05-05 10:43 55.61064 12.63203 20 ft 37 kts 41°
2026-05-05 10:43 55.61231 12.63322 19 ft 24 kts 356°
2026-05-05 10:44 55.61389 12.63335 18 ft 23 kts 31°
2026-05-05 10:44 55.61508 12.63511 17 ft 22 kts 40°
2026-05-05 10:44 55.61622 12.63687 16 ft 21 kts 41°
2026-05-05 10:44 55.61733 12.63856 16 ft 21 kts 41°
2026-05-05 10:45 55.61839 12.64023 16 ft 20 kts 41°
2026-05-05 10:45 55.61958 12.64146 16 ft 20 kts 24°
2026-05-05 10:45 55.62077 12.64244 16 ft 17 kts 26°
2026-05-05 10:45 55.62144 12.64301 16 ft 6 kts 26°
2026-05-05 10:46 55.62187 12.64337 16 ft 9 kts 25°
2026-05-05 10:46 55.62250 12.64407 16 ft 11 kts 53°
2026-05-05 10:46 55.62277 12.64522 16 ft 8 kts 68°
2026-05-05 10:46 55.62285 12.64553 16 ft 2 kts 67°
2026-05-05 10:47 55.62290 12.64574 16 ft 2 kts 66°
2026-05-05 10:47 55.62297 12.64601 16 ft 4 kts 66°
2026-05-05 10:47 55.62313 12.64668 16 ft 9 kts 66°
2026-05-05 10:47 55.62345 12.64793 16 ft 13 kts 65°
2026-05-05 10:48 55.62317 12.64960 16 ft 15 kts 123°
2026-05-05 10:48 55.62273 12.65110 16 ft 14 kts 90°
2026-05-05 10:48 55.62349 12.65205 16 ft 17 kts 358°
2026-05-05 10:48 55.62466 12.65200 18 ft 17 kts 358°
2026-05-05 10:49 55.62581 12.65194 16 ft 16 kts 359°
2026-05-05 10:49 55.62658 12.65278 16 ft 11 kts 57°
2026-05-05 10:49 55.62706 12.65320 18 ft 3 kts 16°
2026-05-05 10:49 55.62718 12.65326 16 ft 1 kts 17°
2026-05-05 10:50 55.62719 12.65327 16 ft 0 kts 17°